Location: Ettringen
(48.1054°N, 10.6545°E)
Time: 07:06:35
(UTC+00:00)

Okean 2 Rocket - Pass Details

Date: 18 November 2025
Orbit: 610 x 635 km, 82.5° (Epoch: 06 December)

Event Time Altitude Azimuth Distance (km) Brightness Sun altitude
Rises 17:10:38 0° 171° (S) 2,884 6.5 -15.6°
Reaches altitude 10° 17:12:55 10° 166° (SSE) 1,979 5.6 -16.0°
Maximum altitude 17:17:06 46° 93° (E) 837 3.3 -16.7°
Enters shadow 17:20:01 18° 27° (NNE) 1,512 4.7 -17.2°
